Location: Franzen
(48.6167°N, 15.3833°E)
Time: 15:30:46
(UTC+00:00)

Transit 2A Rocket - Pass Details

Date: 04 August 2021
Orbit: 586 x 916 km, 66.7° (Epoch: 23 September)

Event Time Altitude Azimuth Distance (km) Brightness Sun altitude
Rises 22:04:05 0° 315° (NW) 3,311 9.3 -23.0°
Reaches altitude 10° 22:06:52 10° 301° (WNW) 2,431 8.2 -23.2°
Maximum altitude 22:11:15 24° 250° (WSW) 1,721 6.7 -23.3°
Enters shadow 22:12:26 22° 233° (SW) 1,799 6.7 -23.4°
